This is the latest recevied weather packets stored in our database for station/object CQ0XCH-11. If no packets are shown the sender has not sent any weather packets the latest 10 day(s).
| Time | Temp. | Humidity | Pressure | Rain* | Wind** | Luminosity | Snow |
|---|---|---|---|---|---|---|---|
| 1777640378 | 28.33° C | 19% | 997.4 hPa | 0 mm | - | - | - |
| 1777640271 | 28.89° C | 18% | 997.3 hPa | 0 mm | - | - | - |
| 1777639891 | 28.89° C | 19% | 997.2 hPa | 0 mm | - | - | - |
| 1777639398 | 29.44° C | 16% | 997.3 hPa | 0 mm | - | - | - |
| 1777639061 | 29.44° C | 18% | 997.3 hPa | 0 mm | - | - | - |
| 1777638197 | 28.33° C | 19% | 997.5 hPa | 0 mm | - | - | - |
| 1777638048 | 28.33° C | 20% | 997.5 hPa | 0 mm | - | - | - |
| 1777637913 | 28.33° C | 20% | 997.6 hPa | 0 mm | - | - | - |
| 1777637810 | 28.33° C | 19% | 997.6 hPa | 0 mm | - | - | - |
| 1777637674 | 27.78° C | 20% | 997.6 hPa | 0 mm | - | - | - |
| 1777637448 | 28.33° C | 19% | 997.7 hPa | 0 mm | - | - | - |
| 1777637303 | 28.89° C | 19% | 997.8 hPa | 0 mm | - | - | - |
| 1777637181 | 28.33° C | 19% | 997.7 hPa | 0 mm | - | - | - |
| 1777636954 | 28.89° C | 20% | 997.8 hPa | 0 mm | - | - | - |
| 1777636821 | 28.89° C | 19% | 997.8 hPa | 0 mm | - | - | - |
| 1777636697 | 28.89° C | 19% | 997.8 hPa | 0 mm | - | - | - |
| 1777636559 | 28.89° C | 19% | 997.8 hPa | 0 mm | - | - | - |
| 1777636442 | 28.89° C | 19% | 997.8 hPa | 0 mm | - | - | - |
| 1777636354 | 28.89° C | 20% | 997.8 hPa | 0 mm | - | - | - |
| 1777636195 | 28.89° C | 20% | 997.8 hPa | 0 mm | - | - | - |
| 1777636077 | 28.33° C | 21% | 997.9 hPa | 0 mm | - | - | - |
| 1777635946 | 28.33° C | 20% | 997.9 hPa | 0 mm | - | - | - |
| 1777635835 | 28.33° C | 19% | 998 hPa | 0 mm | - | - | - |
| 1777635703 | 28.33° C | 21% | 998 hPa | 0 mm | - | - | - |
| 1777635341 | 27.78° C | 21% | 998.1 hPa | 0 mm | - | - | - |
* Rain since midnight (hover to see other rain measurements)
** Current wind speed in m/s (hover to see current wind gust speed)